{"data":{"norad_id":54667,"intl_designator":"2022-166AB","name":"ONEWEB-0603","alt_names":[],"object_type":"PAYLOAD","status":"ACTIVE","operator":null,"country":"UK","launch_date":"2022-12-08","launch_site_code":"AFETR","launch_vehicle":null,"mission":null,"orbit_class":"UNKNOWN","rcs_meters":null,"size_class":null,"mass_kg":null,"dimensions":null,"purposes":["comms"],"wikipedia_slug":null,"has_3d_model":false,"image_url":null,"decayed_at":null,"tle_current":{"epoch":"2026-09-20T03:43:50.924928Z","epoch_age_seconds":55600,"freshness":"FRESH","line1":"1 54667U 22166AB  26263.15545052  .00000039  00000+0  62199-4 0  9993","line2":"2 54667  87.9288 225.0611 0002159  79.5380 280.5997 13.21824118184024","mean_motion":13.21824118,"eccentricity":0.0002159,"inclination_deg":87.9288,"raan_deg":225.0611,"arg_perigee_deg":79.538,"mean_anomaly_deg":280.5997,"bstar":6.2199e-5,"rev_number":18402,"period_min":108.94036357718,"perigee_km":1176.1292220881,"apogee_km":1179.391858646,"semimajor_km":7555.8975403671,"source":"CELESTRAK","updated_at":"2026-09-20T09:00:44.746338Z"}}}